User: anonymous   Login
Location: Caltech
(34.1382°N, 118.1253°W)
Time: 16:08:51
(UTC-07:00)
Language:

Iridium 70 - Orbit

View from above orbital plane
View from above orbital plane
View from above satellite
View from above satellite

Ground track
Ground track

The orbit data is extracted from the following two-line orbital elements,

1 25342U 98032A   15180.47369059  .00000068  00000-0  17209-4 0  9993
2 25342 086.3981 164.6489 0002280 091.1201 020.5178 14.34214338896084
Epoch (UTC): 29 June 2015 11:22:06
Eccentricity: 0.0002280
inclination: 86.3981°
perigee height: 776 km
apogee height: 779 km
right ascension of ascending node: 164.6489°
argument of perigee: 91.1201°
revolutions per day: 14.34214338
mean anomaly at epoch: 20.5178°
orbit number at epoch: 89608

The dashed part of the orbit path shows where the satellite is in the earth's shadow,  

DLR